Weather History for Pensacola NAS, FL

Change the Weather History Date:

Thursday, January 3, 2013

  Actual Average Record
Temperature  
Mean Temperature 42 °F -  
Max Temperature 46 °F 59 °F - (-1)
Min Temperature 37 °F 40 °F - (-1)
Degree Days  
Heating Degree Days 24    
Moisture  
Dew Point 41 °F    
Average Humidity 91    
Maximum Humidity 100    
Minimum Humidity 74    
Precipitation  
Precipitation 0.05 in - - ()
Sea Level Pressure  
Sea Level Pressure 30.24 in    
Wind  
Wind Speed 7 mph (North)    
Max Wind Speed 12 mph    
Max Gust Speed 18 mph    
Visibility 9 miles    
Events Rain    
Averages and records for this station are not official NWS values.
T = Trace of Precipitation, MM = Missing Value Source: NWS Daily Summary

Daily Weather History Graph

Daily Weather History Graph

Search for Another Location

Airport:

Trip Planner

Search our weather history database for the weather conditions in past years. The results will help you decide how hot, cold, wet, or windy it might be!

Date:

Astronomy

Jan. 03, 2013 Rise Set
Actual Time 6:46 AM CST 5:01 PM CST
Civil Twilight 6:20 AM CST 5:27 PM CST
Nautical Twilight 5:50 AM CST 5:57 PM CST
Astronomical Twilight 5:21 AM CST 6:27 PM CST
Moon 11:06 PM CST (1/3) 10:25 AM CST (1/3)
Length of Visible Light 11h 07m
Length of Day
10h 15m
Waning Gibbous, 65% of the Moon is Illuminated
Jan 3
Waning Gibbous
Jan 4
Last Quarter
Jan 11
New
Jan 18
First Quarter
Jan 26
Full

Hourly Weather History & Observations

Time (CST) Temp. Windchill Dew Point Humidity Pressure Visibility Wind Dir Wind Speed Gust Speed Precip Events Conditions
12:56 AM 45.0 °F 41.8 °F 44.1 °F 97% 30.19 in 5.0 mi North 5.8 mph - 0.01 in Rain Rain
1:21 AM 44.6 °F 39.7 °F 44.6 °F 100% 30.18 in 6.0 mi North 9.2 mph - 0.01 in Rain Rain
1:56 AM 44.1 °F 39.5 °F 43.0 °F 96% 30.18 in 7.0 mi NNW 8.1 mph - 0.01 in Rain Light Rain
2:56 AM 44.1 °F 40.8 °F 43.0 °F 96% 30.19 in 5.0 mi North 5.8 mph - N/A Rain Rain
3:15 AM 44.6 °F 41.4 °F 44.6 °F 100% 30.19 in 6.0 mi North 5.8 mph - 0.01 in Rain Rain
3:51 AM 44.6 °F 43.1 °F 42.8 °F 93% 30.18 in 7.0 mi North 3.5 mph - 0.01 in Rain Rain
3:56 AM 44.1 °F 42.5 °F 43.0 °F 96% 30.18 in 7.0 mi North 3.5 mph - 0.01 in Rain Rain
4:09 AM 44.6 °F 41.4 °F 44.6 °F 100% 30.18 in 6.0 mi North 5.8 mph - 0.01 in Rain Rain
4:56 AM 43.0 °F 38.8 °F 42.1 °F 97% 30.20 in 9.0 mi North 6.9 mph - 0.02 in Rain Light Rain
5:56 AM 43.0 °F 38.2 °F 42.1 °F 97% 30.22 in 10.0 mi North 8.1 mph - 0.00 in Rain Light Rain
6:51 AM 42.8 °F 38.6 °F 42.8 °F 100% 30.21 in 10.0 mi North 6.9 mph - 0.00 in Rain Light Rain
6:56 AM 43.0 °F 38.8 °F 42.1 °F 97% 30.22 in 10.0 mi North 6.9 mph - 0.00 in Rain Light Rain
7:35 AM 42.8 °F 38.0 °F 42.8 °F 100% 30.22 in 6.0 mi North 8.1 mph 16.1 mph 0.00 in Rain Light Rain
7:45 AM 42.8 °F 38.0 °F 42.8 °F 100% 30.22 in 4.0 mi North 8.1 mph - 0.00 in Rain Light Rain
7:56 AM 43.0 °F 37.7 °F 42.1 °F 97% 30.23 in 4.0 mi North 9.2 mph - N/A Rain Rain
8:56 AM 42.1 °F 37.7 °F 42.1 °F 100% 30.26 in 6.0 mi North 6.9 mph - N/A Rain Light Rain
9:31 AM 42.8 °F 39.3 °F 42.8 °F 100% 30.26 in 10.0 mi North 5.8 mph - N/A Rain Light Rain
9:49 AM 42.8 °F 38.0 °F 42.8 °F 100% 30.25 in 10.0 mi North 8.1 mph - N/A Rain Light Rain
9:56 AM 43.0 °F 36.8 °F 42.1 °F 97% 30.26 in 10.0 mi North 11.5 mph - N/A   Overcast
9:59 AM 42.8 °F 37.5 °F 42.8 °F 100% 30.25 in 10.0 mi North 9.2 mph - 0.00 in Rain Light Rain
10:19 AM 44.6 °F 39.7 °F 42.8 °F 93% 30.26 in 10.0 mi North 9.2 mph - 0.00 in   Overcast
10:56 AM 45.0 °F 39.7 °F 42.1 °F 90% 30.25 in 10.0 mi North 10.4 mph 16.1 mph 0.00 in   Overcast
11:04 AM 44.6 °F 38.8 °F 42.8 °F 93% 30.24 in 10.0 mi North 11.5 mph - N/A   Overcast
11:56 AM 46.0 °F 41.4 °F 42.1 °F 86% 30.23 in 10.0 mi North 9.2 mph - N/A   Overcast
12:56 PM 46.0 °F 41.9 °F 41.0 °F 83% 30.22 in 10.0 mi NNW 8.1 mph - N/A   Overcast
1:56 PM 46.0 °F 41.0 °F 39.9 °F 79% 30.21 in 10.0 mi North 10.4 mph - N/A   Overcast
2:56 PM 46.0 °F 40.6 °F 39.0 °F 76% 30.24 in 10.0 mi North 11.5 mph 18.4 mph N/A   Overcast
3:56 PM 46.0 °F 41.4 °F 39.0 °F 76% 30.24 in 10.0 mi North 9.2 mph 17.3 mph N/A   Mostly Cloudy
4:56 PM 45.0 °F 40.6 °F 37.0 °F 74% 30.27 in 10.0 mi North 8.1 mph - N/A   Mostly Cloudy
5:56 PM 43.0 °F 38.8 °F 37.0 °F 80% 30.29 in 10.0 mi North 6.9 mph - N/A   Mostly Cloudy
6:56 PM 41.0 °F 38.0 °F 36.0 °F 82% 30.30 in 10.0 mi North 4.6 mph - N/A   Scattered Clouds
7:56 PM 39.0 °F 36.8 °F 35.1 °F 86% 30.34 in 10.0 mi North 3.5 mph - N/A   Partly Cloudy
8:56 PM 37.9 °F 35.5 °F 34.0 °F 86% 30.34 in 10.0 mi North 3.5 mph - N/A   Partly Cloudy
9:56 PM 37.0 °F 32.4 °F 32.0 °F 82% 30.35 in 10.0 mi North 5.8 mph - N/A   Clear
10:56 PM 37.9 °F 32.1 °F 30.9 °F 76% 30.33 in 10.0 mi North 8.1 mph - N/A   Clear
11:56 PM 37.0 °F 32.4 °F 30.9 °F 79% 30.34 in 10.0 mi North 5.8 mph - N/A   Clear